GFSNE_850_spd_105.txt.gz
Wind_Speed
38 32 28 28 21 20 20 22 25 28 32 33 32 28 28 32 34 34 32 27 27 34 33 31 33 34 36 37 39 43 40 42 43 45 52 48 51 51
40 36 31 27 24 27 28 28 28 30 34 35 37 36 37 35 34 34 34 31 31 35 32 34 35 35 37 39 41 40 39 42 44 46 43 45 51 51
42 36 32 30 31 32 31 30 31 31 35 40 41 39 39 37 38 35 30 28 35 34 34 38 38 39 40 39 42 43 41 41 43 41 41 43 44 44
34 31 33 31 30 32 34 33 32 36 38 40 39 39 38 36 28 29 31 42 32 33 34 36 35 37 37 38 39 39 39 40 37 37 39 41 42 44
37 33 34 32 35 35 36 35 38 40 40 40 38 39 37 34 34 31 26 22 24 28 27 26 27 27 27 27 28 29 31 30 32 32 33 36 38 40
36 40 39 40 42 42 41 41 42 43 42 40 36 32 30 26 27 23 21 21 22 22 22 21 22 22 23 25 26 28 29 30 31 30 30 32 34 35
37 38 41 43 44 44 43 44 43 40 38 33 29 25 21 20 20 20 19 18 20 20 19 21 23 24 24 25 26 27 28 31 33 35 37 39 41 41
40 41 41 42 40 42 45 45 43 40 36 28 23 18 15 12 11 13 15 15 14 19 22 22 27 28 29 29 31 32 34 37 37 37 39 38 37 37
39 40 40 38 40 42 39 31 24 18 17 12 12 7 6 7 11 12 16 19 21 25 26 27 27 28 28 30 31 29 29 30 31 31 35 37 39 41
34 36 38 38 34 26 19 14 11 9 9 6 1 2 5 9 13 17 18 22 21 24 25 25 27 31 32 29 27 26 24 33 36 35 35 35 35 32
36 36 32 27 20 15 14 13 12 9 3 2 5 6 11 12 13 16 18 20 22 22 23 24 30 35 34 27 24 24 35 34 36 36 36 34 33 31
31 27 24 23 20 14 8 5 5 4 1 5 8 7 7 11 13 14 15 17 19 17 19 28 29 33 26 19 33 36 35 35 36 35 34 33 29 29
30 25 21 19 15 12 9 8 4 4 3 3 4 6 8 9 12 13 14 16 18 19 22 25 27 29 28 39 40 40 38 40 39 37 32 26 32 34
32 28 20 13 11 9 7 6 4 4 3 1 3 6 8 10 12 14 15 16 18 19 21 22 25 26 28 35 39 43 41 40 38 32 29 41 40 35
21 20 16 11 5 8 9 9 8 7 7 4 5 6 9 12 12 12 13 15 16 18 21 22 24 27 28 33 39 43 42 43 32 34 40 41 40 37
20 15 9 9 11 11 11 10 9 9 8 6 7 8 9 10 11 14 16 18 20 20 22 24 26 28 31 32 34 38 37 34 41 40 41 42 40 36
16 14 15 11 12 11 11 10 8 8 7 7 7 8 8 11 13 15 17 20 22 25 26 25 25 27 29 31 35 31 39 39 39 39 37 41 41 38
15 12 12 12 12 12 10 10 7 7 8 7 7 7 9 11 13 15 17 19 22 24 27 29 32 37 39 37 25 36 35 41 40 38 36 38 44 36
11 12 11 10 10 10 8 8 7 6 6 6 6 7 10 11 13 15 18 20 22 24 26 28 31 35 41 45 46 32 40 39 39 40 36 37 40 32
13 13 11 10 9 7 6 6 5 5 5 4 6 8 10 12 14 16 18 22 24 26 27 28 30 31 32 36 43 44 37 32 33 37 36 33 26 18
13 12 10 8 7 6 4 4 5 4 4 4 6 8 9 11 13 16 19 21 23 25 28 31 31 31 33 35 38 43 34 31 26 27 26 24 19 21
11 9 9 7 6 5 3 3 2 2 1 4 6 7 9 12 14 16 18 21 23 25 27 30 33 34 34 34 37 37 37 28 21 13 13 13 15 11
9 8 7 5 3 2 2 2 2 1 2 5 7 8 9 11 13 16 19 20 22 25 29 33 34 33 32 32 34 33 33 30 28 24 20 14 20 23

GFSNE_850_spd_111.txt.gz
Wind_Speed
32 33 33 31 27 22 16 11 15 13 11 15 15 20 29 23 22 23 25 29 30 31 31 32 33 33 31 34 34 34 35 36 37 37 39 39 39 40
36 37 34 31 32 29 26 20 14 14 16 18 20 23 22 25 25 25 28 29 31 33 33 35 32 31 32 36 40 40 38 41 39 40 39 41 42 42
41 39 38 36 37 35 30 31 28 22 21 24 24 23 23 24 26 28 29 30 33 32 34 31 31 33 35 37 36 35 35 35 35 36 38 39 38 38
45 39 38 36 37 38 38 42 31 29 27 26 29 27 29 26 26 25 27 29 27 27 28 30 28 27 26 22 22 24 26 29 31 33 35 36 37 38
46 43 46 44 44 43 47 48 45 38 31 29 29 25 29 32 27 24 24 22 22 23 23 22 21 20 19 20 22 26 30 33 34 35 36 37 38 38
49 49 46 48 46 44 45 42 40 38 37 32 29 29 31 31 26 24 24 22 21 19 18 15 13 15 18 24 24 26 27 30 31 31 32 34 36 38
44 43 38 36 30 35 37 37 35 35 29 31 33 33 32 30 27 26 23 18 15 13 13 14 18 19 19 21 22 25 25 27 29 31 34 36 37 38
41 31 31 30 29 30 32 32 32 33 35 34 33 32 28 24 21 16 11 9 7 10 13 16 16 17 18 20 22 23 23 25 31 34 36 38 39 40
28 29 30 29 29 30 32 34 35 35 34 31 27 24 20 15 11 9 7 8 8 11 13 11 11 14 18 20 21 19 27 33 33 35 35 36 38 39
24 27 29 31 32 33 33 31 29 28 25 22 20 18 14 11 7 5 4 7 7 7 10 12 16 18 18 17 14 27 27 30 29 30 32 34 35 37
26 29 33 36 37 36 32 29 24 19 16 15 14 13 8 4 5 7 3 3 4 6 12 16 20 25 18 11 25 27 26 27 28 30 31 31 33 36
32 32 33 32 30 28 26 23 19 15 16 15 9 5 4 7 5 5 5 6 8 7 15 17 20 23 14 15 29 27 27 27 28 28 28 29 31 33
32 30 27 27 25 21 17 17 16 19 14 9 7 8 8 7 7 7 8 10 12 12 15 18 20 22 20 23 31 26 26 30 30 27 28 31 31 30
36 32 29 26 25 23 20 18 15 13 10 10 11 12 11 10 10 10 10 11 13 13 15 18 21 23 24 24 23 26 27 27 23 23 28 29 29 27
34 31 31 28 27 24 18 16 13 13 14 14 13 13 12 10 9 10 10 11 11 12 15 17 21 24 24 22 23 25 27 24 19 27 27 27 28 30
37 38 34 28 24 21 17 16 18 18 15 13 13 13 11 9 8 9 9 10 10 11 13 18 22 25 24 21 20 22 20 19 25 26 27 24 26 26
36 32 29 24 19 18 20 20 19 18 16 15 12 11 10 9 9 9 9 9 10 12 15 19 23 27 26 22 22 18 20 23 24 25 23 22 21 22
28 23 22 19 19 21 19 18 18 17 15 13 11 10 9 9 9 8 8 10 11 12 15 20 25 29 28 24 24 25 25 25 22 20 18 19 19 20
19 21 22 22 22 21 19 17 17 16 14 11 9 9 8 8 7 7 7 9 10 13 16 20 25 28 27 26 21 24 25 23 21 18 17 16 17 21
21 23 22 21 19 18 17 15 14 13 12 9 8 7 6 5 5 6 8 9 12 14 17 19 23 25 25 23 23 19 18 21 20 20 18 15 15 21
21 21 19 17 16 15 14 13 12 11 10 7 6 5 3 3 4 5 7 10 12 15 16 19 23 24 21 20 19 20 12 13 15 17 19 19 18 17
18 17 17 15 14 13 12 12 10 9 7 5 3 3 2 2 3 6 8 11 13 15 17 19 23 23 18 18 18 17 13 7 7 9 12 14 16 13
15 14 13 12 12 11 10 8 7 6 5 3 1 1 2 3 5 7 9 11 13 15 17 19 22 21 17 16 16 15 12 10 9 8 9 10 12 15

GFSNE_850_spd_114.txt.gz
Wind_Speed
43 43 32 25 22 22 16 16 17 14 15 14 13 9 12 21 26 31 24 23 25 26 27 29 31 33 33 34 34 34 36 36 39 42 38 38 39 38
44 43 36 35 28 25 23 18 13 16 13 16 19 18 22 21 24 28 27 28 29 30 32 34 34 32 33 33 34 36 37 38 41 38 37 36 35 36
40 37 36 34 28 28 26 26 25 18 20 14 15 16 20 24 26 26 29 29 30 33 32 34 33 34 34 32 34 33 31 30 29 29 29 31 33 36
36 36 33 34 36 33 31 34 42 33 27 24 27 27 24 24 28 26 22 29 30 33 34 30 30 29 26 21 20 21 22 23 25 28 31 34 35 35
39 40 40 40 39 38 36 36 38 35 37 39 38 24 28 28 28 26 29 28 28 28 26 24 23 20 19 16 18 22 25 27 29 30 32 32 34 35
40 44 41 39 36 36 36 35 37 41 43 46 40 37 32 28 29 28 28 26 26 23 21 19 17 16 16 19 21 23 24 26 28 29 30 32 35 36
46 46 43 43 40 38 39 43 44 43 45 45 45 35 35 31 31 31 29 26 24 21 18 16 15 14 15 17 18 21 22 24 26 29 31 32 32 34
42 46 46 46 45 44 45 39 39 39 35 40 38 31 31 32 32 28 25 22 17 15 13 11 11 14 14 15 18 19 19 24 27 28 29 30 33 34
40 36 43 46 43 38 27 28 28 29 30 32 32 32 32 31 27 22 18 15 10 7 7 10 8 9 13 15 13 17 22 23 25 26 27 29 31 33
32 33 35 38 31 28 29 29 29 31 33 34 33 30 26 23 19 16 11 7 4 5 6 4 7 9 10 10 11 17 19 20 21 23 26 28 29 31
27 26 27 28 30 32 32 32 32 30 28 30 29 25 20 15 12 10 6 2 2 2 4 5 8 11 7 4 16 17 18 20 22 24 24 23 25 26
29 29 29 30 32 33 34 34 31 23 20 18 18 18 15 11 7 7 5 7 5 4 5 4 7 11 7 8 16 16 18 20 20 19 17 19 22 24
32 32 32 34 34 33 29 24 21 22 21 19 17 14 13 12 11 10 8 8 8 7 5 8 8 8 8 13 15 11 17 19 18 17 19 21 19 21
36 33 30 30 26 20 18 20 20 21 18 16 14 15 15 14 12 10 9 10 9 8 8 10 11 12 13 14 9 16 16 16 15 15 19 17 17 18
32 30 28 26 27 27 27 23 20 19 17 15 16 17 15 14 11 10 10 10 9 8 9 11 14 15 12 12 14 15 17 16 11 18 15 14 16 18
32 31 30 30 30 28 25 22 19 16 17 18 18 17 15 13 11 10 8 7 6 7 8 11 15 16 12 10 12 13 13 13 17 15 12 11 13 15
25 30 30 28 26 23 22 21 20 19 18 19 17 15 13 12 11 9 7 6 5 5 6 10 14 15 12 11 11 9 13 12 14 13 12 12 12 15
33 33 30 24 23 22 22 22 22 20 18 16 16 14 13 11 10 7 6 5 3 5 7 11 14 16 12 9 12 10 11 13 13 12 11 12 13 15
26 27 25 22 21 21 22 21 21 19 18 16 14 13 12 10 8 6 4 4 4 6 7 10 13 17 17 14 10 13 15 14 14 11 11 13 16 17
24 24 22 22 21 21 20 19 19 18 16 15 13 12 10 8 7 5 3 3 3 5 6 7 10 17 16 14 15 11 14 14 12 11 13 15 14 18
20 20 20 20 19 19 18 17 16 15 14 12 11 10 8 6 4 2 0 2 4 5 6 8 12 16 15 13 14 14 10 9 10 12 14 16 13 11
19 19 19 18 17 16 16 15 15 13 10 9 9 7 6 4 2 2 3 3 5 6 8 11 12 13 12 12 14 16 12 7 7 10 10 10 11 11
18 17 16 15 15 15 14 13 12 11 9 7 6 5 4 2 2 3 4 5 6 8 9 12 12 12 13 12 15 15 15 15 14 13 10 11 9 13

GFSNE_850_spd_117.txt.gz
Wind_Speed
49 42 34 28 24 22 20 17 27 23 20 18 20 18 20 17 13 16 19 26 28 25 26 25 26 28 30 32 33 33 34 34 34 34 36 36 36 37
44 40 37 32 26 24 23 21 23 19 21 20 15 20 18 18 17 21 23 26 30 32 30 29 30 31 33 33 33 33 34 35 32 35 33 32 30 30
47 42 40 34 29 26 21 21 23 23 20 15 18 19 19 19 21 23 26 28 27 30 30 31 33 36 35 35 34 33 32 26 25 25 26 28 30 32
48 47 40 37 32 28 27 24 22 22 22 17 16 20 22 24 25 24 27 25 27 25 34 33 35 36 35 32 28 26 23 21 24 27 29 29 30 31
46 38 35 36 35 35 30 28 27 24 25 35 32 33 33 32 34 37 26 28 31 31 34 35 33 29 25 22 19 18 20 22 23 25 27 28 30 30
32 32 34 38 36 36 34 36 36 36 37 37 34 33 32 32 36 33 31 34 29 29 29 26 24 20 17 17 18 17 19 23 24 24 26 27 28 27
34 33 36 38 39 38 35 33 32 31 29 29 31 37 42 40 41 42 41 32 30 28 26 22 18 16 16 16 14 16 20 20 20 22 23 24 25 26
34 37 40 42 43 35 34 32 32 34 35 37 40 47 44 41 44 41 36 31 29 25 21 15 12 10 10 12 13 15 15 17 19 19 20 23 24 25
31 35 37 37 38 38 38 38 38 39 38 38 35 39 41 42 38 34 32 30 25 16 9 8 7 8 10 12 9 10 15 15 16 18 20 21 21 20
36 36 35 34 35 40 41 42 42 40 35 33 33 32 31 30 30 27 24 20 15 10 7 3 3 6 8 6 8 12 14 14 15 17 18 17 16 16
27 29 31 32 32 34 36 40 42 36 36 35 35 32 31 26 20 18 15 14 12 7 1 3 5 4 5 5 8 10 11 13 15 15 14 14 15 14
29 30 31 31 32 32 33 33 33 31 29 27 22 20 15 14 14 14 13 10 7 6 4 6 2 3 2 3 9 8 10 12 12 11 13 14 12 13
27 29 29 32 33 34 34 31 30 29 23 18 17 18 18 17 15 12 7 8 7 7 6 3 1 2 3 8 9 7 13 12 11 11 11 6 7 13
29 28 27 30 32 26 22 22 22 20 19 20 20 18 16 14 12 11 10 10 10 7 6 4 3 5 5 6 5 9 11 11 12 12 11 8 9 15
28 28 29 28 20 21 18 20 23 19 19 19 19 17 16 15 15 14 13 10 9 6 4 5 6 7 6 7 9 11 13 12 7 14 11 10 11 13
31 29 21 16 17 19 22 21 19 17 17 15 16 17 16 15 15 13 11 8 6 4 4 6 9 9 7 7 8 9 9 11 13 13 11 9 11 10
16 15 19 23 26 26 24 21 21 19 15 15 16 17 15 13 11 11 9 6 5 5 3 5 8 10 8 7 7 7 9 10 12 12 11 11 10 10
23 28 28 27 25 24 23 20 18 18 18 17 16 14 14 11 9 8 7 6 3 2 3 5 8 10 8 6 11 8 9 10 12 10 8 12 12 11
27 28 27 24 22 21 20 19 18 17 15 14 12 12 11 10 7 6 5 4 2 2 4 6 8 11 12 9 8 10 12 12 11 10 8 12 14 14
24 23 22 21 20 18 18 18 17 16 14 14 13 12 10 8 7 4 3 2 2 3 4 5 8 12 14 12 14 10 15 17 13 12 13 13 12 10
19 19 19 18 17 17 18 16 15 14 12 11 10 10 9 6 5 3 1 1 2 4 5 6 10 12 13 14 14 14 14 12 15 14 16 16 13 11
18 18 16 16 15 14 14 14 13 13 11 9 9 8 7 5 4 2 1 1 3 5 6 8 9 10 11 12 14 17 16 16 10 12 12 13 16 14
15 15 15 15 14 14 14 13 12 11 9 8 7 6 5 3 2 2 3 4 5 7 7 9 9 9 11 12 15 15 16 15 14 14 11 9 13 12